Wind_Speed
21 21 21 21 21 22 23 24 25 23 23 21 19 19 19 19 18 17 17 18 18 18 18 19 20 20 20 20 20 20 21 22 22 22 22 21 21 21 21 21 21 21 21 20
21 20 20 20 21 22 22 22 23 23 22 20 19 18 18 18 18 17 18 18 18 18 18 18 19 19 19 19 20 20 21 21 21 21 20 19 19 19 19 19 20 19 19 18
22 20 20 20 20 21 21 20 20 20 20 19 18 18 18 17 17 17 18 18 17 17 16 17 18 18 18 19 19 19 19 19 19 18 18 17 17 17 17 18 17 17 16 17
23 21 21 19 19 19 19 18 19 18 19 19 18 17 17 17 17 17 17 16 15 16 16 16 16 17 18 18 18 18 17 17 17 17 16 16 16 16 16 16 16 16 16 16
23 22 22 20 19 18 18 18 18 17 17 16 15 15 15 16 15 14 14 14 14 14 14 14 15 16 17 16 17 16 16 16 15 15 15 16 15 16 16 16 16 16 16 16
21 22 22 20 19 18 18 16 16 16 15 13 12 12 12 13 13 11 11 11 13 13 13 13 14 15 15 15 15 15 15 14 14 14 15 15 15 16 16 16 16 17 17 17
20 20 20 19 18 17 16 15 15 14 13 12 11 10 10 10 11 10 10 10 11 11 12 12 13 13 14 13 14 14 14 13 14 14 15 15 15 16 16 17 17 17 17 17
20 20 18 18 17 16 15 14 13 13 12 12 11 9 9 8 8 8 9 9 9 10 11 11 11 11 12 12 12 13 14 14 14 14 14 15 16 16 17 17 17 18 17 18
18 17 17 17 17 15 15 14 13 12 10 10 10 8 8 8 7 7 8 8 8 9 9 9 9 10 11 11 12 13 14 14 14 15 15 16 17 17 17 17 18 18 18 18
16 15 16 16 15 15 14 13 12 12 10 9 8 7 8 8 6 6 6 6 6 7 8 8 8 9 11 12 13 13 13 14 15 15 16 17 17 18 18 18 18 19 19 19
14 14 14 14 15 15 13 12 12 11 10 9 7 6 6 6 6 6 5 5 6 7 8 8 8 9 11 12 13 13 14 14 15 16 17 17 18 19 19 19 19 19 19 20
14 14 15 14 15 14 12 11 11 11 10 9 7 6 6 6 6 5 4 4 5 6 7 7 8 10 11 12 12 14 14 15 16 17 18 18 19 19 19 19 19 20 19 20
15 14 14 14 14 13 12 11 10 10 10 8 8 6 6 5 4 4 4 4 5 5 6 7 9 10 11 11 13 14 15 16 16 17 18 19 19 19 19 19 20 20 20 20
14 14 13 13 12 13 12 11 10 9 9 8 8 7 6 5 4 3 4 4 4 5 6 7 8 10 11 12 13 14 15 16 17 18 18 19 20 20 20 21 21 21 21 20
13 13 12 12 11 11 11 10 10 9 9 8 8 7 6 5 4 3 3 3 4 4 5 7 8 9 10 12 13 14 15 17 17 18 19 20 20 21 21 22 22 22 22 22
13 12 12 12 11 11 10 10 10 9 9 9 8 7 6 5 4 3 2 2 3 4 5 7 8 9 10 12 13 14 16 17 18 19 20 20 21 22 22 23 24 24 24 23
12 12 12 11 12 11 10 10 10 10 9 8 8 7 6 5 4 3 2 2 2 4 5 7 8 9 10 12 13 15 16 17 19 20 21 21 22 22 23 23 24 25 25 24
13 12 12 11 11 11 11 11 11 10 9 8 7 7 7 6 5 3 1 1 2 4 5 7 8 9 10 12 14 16 17 18 19 21 21 22 23 23 24 24 25 25 25 25
13 13 13 12 11 11 11 11 11 10 10 9 8 7 7 6 4 3 2 1 2 4 5 7 8 10 11 13 14 16 17 19 20 21 22 23 23 24 25 26 25 25 25 25
14 14 14 13 12 11 12 11 10 11 11 10 9 8 7 6 5 3 1 1 2 4 5 7 8 10 11 13 15 16 18 19 20 22 23 23 24 25 26 26 26 26 25 26
15 14 14 14 13 13 12 11 11 11 11 10 10 9 8 6 5 3 1 1 2 4 5 7 8 10 11 13 15 16 18 19 21 22 23 24 25 25 26 26 26 26 26 26
15 15 15 15 15 14 12 11 12 12 12 12 12 11 9 7 5 4 2 0 2 4 6 7 9 10 12 14 15 17 18 20 22 23 24 25 26 26 27 27 27 27 27 27
16 16 16 16 15 14 13 13 13 13 13 13 13 11 9 7 5 4 2 0 2 4 6 7 9 11 13 14 16 17 19 21 22 23 24 26 27 28 28 28 28 28 28 28
17 16 16 15 15 14 14 14 14 14 14 14 13 11 9 7 6 4 2 0 2 4 5 7 9 11 13 15 16 18 20 22 23 24 25 26 27 28 28 28 29 29 30 30
17 17 16 15 14 14 14 14 15 15 15 14 13 11 10 8 6 4 2 0 2 4 5 7 10 12 13 15 17 19 21 22 24 25 26 26 27 28 29 29 30 31 32 32
18 18 17 16 15 15 15 15 15 16 15 14 13 11 9 8 6 4 2 1 3 4 6 8 10 12 14 15 17 19 21 23 24 25 26 27 28 29 30 31 32 32 33 34
19 19 19 18 17 16 17 17 17 16 15 14 12 10 9 8 6 5 3 3 3 5 7 9 11 12 14 16 18 20 22 23 25 25 26 27 29 31 31 32 33 34 34 35
Wind_Direction
290 288 286 282 282 283 286 289 289 291 292 294 290 290 293 295 296 296 297 298 300 304 306 309 311 313 315 317 318 318 319 320 318 316 315 315 316 315 315 313 312 311 309 306
288 286 286 285 284 285 288 291 292 292 292 291 288 288 289 292 293 292 296 299 300 301 305 308 312 314 316 317 319 320 321 320 320 320 320 319 318 319 319 318 317 317 315 312
289 285 284 285 286 286 286 289 290 291 291 289 287 286 286 289 290 293 297 300 303 305 308 310 314 318 320 322 324 323 323 324 326 327 327 325 324 325 326 326 325 322 321 320
291 288 286 292 290 288 286 286 288 290 291 292 290 288 286 288 291 292 295 298 301 305 308 312 318 322 324 325 327 328 329 329 332 333 335 335 332 334 334 335 335 332 328 323
291 290 290 290 290 286 286 285 288 290 292 292 292 289 287 287 292 292 297 300 302 306 310 316 322 328 331 329 331 333 333 334 335 337 339 341 341 342 342 342 343 342 338 332
291 291 291 291 290 287 287 286 287 290 292 289 290 288 290 291 294 297 299 302 304 307 314 319 325 331 336 337 339 340 341 341 340 341 344 344 345 347 347 348 347 347 344 340
284 284 287 289 287 284 283 285 285 287 290 289 286 286 291 294 296 301 304 305 307 313 319 324 329 333 338 341 344 345 346 346 346 347 349 349 348 347 348 349 349 348 347 344
281 281 284 283 280 281 282 282 285 287 288 289 284 283 292 295 298 310 315 314 316 322 327 332 337 342 345 347 349 349 348 348 348 347 350 351 351 350 349 348 347 347 347 346
279 281 283 280 280 279 281 281 282 282 281 284 285 280 293 301 304 316 322 320 322 325 331 340 346 349 351 352 351 350 350 351 351 351 350 352 351 350 349 349 348 347 346 345
276 275 277 275 274 275 276 276 275 274 272 274 281 280 286 291 298 309 322 330 334 336 338 347 350 353 355 355 353 353 353 354 355 354 353 352 351 350 348 347 346 345 345 344
274 275 271 268 268 270 270 267 266 264 262 257 261 275 281 280 286 300 310 323 335 339 346 354 353 353 356 358 357 354 352 352 352 352 352 351 351 351 350 348 347 347 347 347
277 275 271 263 263 261 259 260 263 263 256 246 253 260 264 274 278 285 293 314 335 342 351 357 355 355 355 357 357 354 350 350 351 351 350 350 351 351 351 350 349 348 348 349
276 277 274 268 260 254 253 256 256 254 249 240 243 247 252 260 268 279 290 313 334 341 350 354 357 357 356 357 358 358 356 353 353 352 352 352 352 352 350 349 349 349 349 348
272 272 270 264 257 251 249 247 244 243 241 235 232 237 244 249 256 273 298 323 340 346 349 353 355 355 356 359 360 0 359 359 358 356 354 352 353 352 351 350 349 349 347 344
266 265 260 255 253 247 242 238 237 235 232 230 228 231 239 236 234 253 299 329 344 348 350 352 352 353 356 359 360 360 359 359 358 356 355 354 354 353 351 350 349 347 345 343
256 251 248 248 245 239 232 230 231 228 226 227 224 226 230 223 229 253 285 324 340 345 348 350 350 351 354 356 358 357 357 356 355 354 354 353 352 351 350 350 349 349 347 345
245 240 240 240 238 233 227 223 222 221 221 224 221 221 219 215 224 234 276 311 336 347 350 350 351 352 354 355 356 356 355 354 353 352 351 350 350 350 349 348 348 348 347 346
236 235 238 234 230 227 222 218 216 215 215 220 217 210 207 208 213 219 226 294 348 354 353 354 354 355 355 355 355 355 355 354 353 352 352 351 351 350 349 348 347 347 347 346
234 235 232 227 222 222 221 218 216 211 211 209 200 198 199 197 200 197 199 331 3 360 359 359 356 355 355 354 354 355 356 355 355 354 353 352 351 351 350 349 349 348 347 346
233 231 229 224 221 220 218 218 214 208 206 204 195 194 191 184 183 179 176 17 13 10 7 2 357 356 355 354 354 355 355 355 355 354 354 353 352 351 351 351 350 348 347 345
226 225 224 219 217 216 215 214 210 203 202 197 192 191 187 182 179 175 173 18 15 9 4 0 359 358 357 355 354 354 354 354 354 354 355 354 353 352 352 351 350 349 348 347
218 219 218 216 215 214 212 211 206 200 197 193 190 188 187 186 180 171 169 71 20 12 6 3 2 1 359 358 357 357 356 355 355 355 355 354 353 352 351 351 350 349 349 348
215 216 214 213 211 208 206 204 201 198 193 190 188 186 187 184 179 176 180 97 13 6 5 4 3 1 359 358 358 357 356 354 354 354 354 353 353 353 353 352 351 350 349 348
210 209 208 208 206 203 200 200 198 194 190 188 186 185 185 185 184 184 186 60 3 358 359 359 357 356 356 355 356 356 355 355 354 354 354 353 353 353 353 352 351 350 349 348
205 204 203 203 202 198 196 194 191 189 187 185 183 185 186 187 189 191 193 279 343 347 350 352 352 352 353 353 354 354 354 353 353 353 352 352 353 353 353 352 351 350 349 348
200 199 199 198 198 195 192 189 187 186 184 182 183 186 187 189 194 200 210 276 322 334 341 345 348 349 351 352 352 352 352 351 351 352 352 353 353 353 352 351 350 349 349 349
198 197 195 195 194 190 188 188 187 186 184 182 183 186 190 193 198 206 227 274 305 324 334 339 343 347 349 350 350 350 351 351 351 351 351 352 352 352 351 351 350 349 349 349
Height
5795 5794 5793 5793 5793 5792 5791 5789 5788 5788 5786 5786 5785 5783 5782 5781 5779 5778 5776 5775 5773 5770 5768 5765 5762 5759 5756 5753 5750 5747 5743 5740 5736 5733 5729 5726 5722 5719 5716 5713 5710 5707 5704 5702
5791 5790 5788 5788 5788 5787 5786 5784 5783 5781 5781 5780 5779 5778 5777 5776 5775 5773 5772 5770 5768 5766 5764 5761 5758 5755 5752 5749 5746 5742 5739 5736 5732 5728 5725 5721 5718 5715 5712 5709 5706 5703 5700 5697
5785 5785 5784 5784 5784 5782 5781 5780 5778 5776 5776 5774 5774 5773 5773 5772 5770 5769 5767 5766 5764 5762 5760 5758 5755 5752 5749 5745 5742 5738 5735 5732 5728 5725 5721 5718 5715 5712 5709 5705 5702 5699 5696 5694
5779 5780 5779 5782 5778 5777 5776 5775 5772 5771 5769 5769 5768 5768 5768 5767 5766 5765 5764 5762 5761 5759 5756 5754 5752 5749 5745 5742 5738 5735 5731 5729 5725 5722 5719 5716 5712 5709 5706 5703 5699 5696 5693 5690
5774 5773 5773 5775 5773 5772 5770 5770 5768 5767 5766 5764 5764 5764 5764 5763 5762 5761 5760 5758 5757 5755 5753 5751 5749 5746 5743 5739 5736 5732 5729 5726 5723 5720 5717 5714 5711 5708 5705 5701 5698 5694 5691 5688
5769 5768 5767 5770 5768 5767 5767 5765 5764 5763 5762 5761 5761 5761 5761 5760 5759 5758 5756 5755 5754 5753 5751 5749 5747 5744 5741 5737 5734 5731 5728 5725 5722 5719 5716 5712 5710 5707 5703 5700 5697 5693 5690 5686
5765 5763 5763 5764 5763 5763 5763 5763 5761 5759 5759 5759 5758 5759 5758 5757 5756 5755 5754 5753 5752 5750 5749 5747 5744 5742 5739 5736 5733 5730 5727 5724 5721 5717 5715 5712 5708 5705 5702 5699 5695 5692 5688 5685
5759 5759 5761 5758 5757 5757 5758 5757 5756 5756 5756 5756 5756 5756 5755 5754 5754 5753 5752 5751 5750 5749 5747 5745 5742 5740 5738 5735 5732 5729 5726 5723 5720 5717 5714 5711 5708 5704 5701 5698 5694 5691 5687 5683
5755 5756 5755 5753 5752 5752 5752 5753 5753 5752 5752 5753 5753 5753 5753 5752 5752 5751 5751 5750 5748 5747 5746 5743 5741 5739 5737 5734 5731 5728 5725 5722 5719 5716 5713 5710 5707 5703 5700 5696 5693 5689 5685 5682
5749 5750 5750 5749 5748 5748 5748 5748 5749 5749 5749 5750 5750 5750 5751 5751 5751 5750 5749 5748 5747 5746 5744 5742 5740 5738 5736 5733 5730 5728 5725 5722 5719 5716 5712 5709 5706 5702 5698 5695 5691 5687 5684 5680
5744 5745 5745 5745 5744 5745 5744 5745 5745 5746 5746 5747 5748 5748 5749 5749 5749 5749 5748 5747 5746 5745 5743 5741 5740 5738 5735 5733 5730 5727 5724 5721 5718 5715 5712 5708 5705 5701 5697 5693 5689 5686 5682 5678
5740 5740 5740 5740 5740 5741 5741 5742 5742 5743 5744 5745 5745 5746 5747 5747 5747 5747 5746 5746 5745 5744 5742 5741 5739 5737 5735 5732 5729 5726 5723 5721 5717 5714 5711 5707 5704 5700 5695 5691 5687 5684 5680 5676
5735 5735 5735 5735 5736 5736 5737 5738 5739 5740 5741 5742 5743 5744 5744 5745 5745 5745 5745 5744 5743 5743 5742 5740 5738 5736 5734 5732 5729 5726 5723 5719 5716 5713 5710 5706 5702 5698 5694 5690 5686 5682 5678 5674
5730 5730 5731 5731 5732 5733 5734 5735 5736 5738 5739 5740 5741 5742 5742 5743 5744 5744 5743 5743 5742 5742 5741 5739 5738 5736 5734 5731 5728 5725 5722 5719 5716 5712 5709 5705 5701 5697 5692 5688 5685 5680 5676 5672
5726 5726 5727 5728 5729 5730 5731 5732 5734 5735 5737 5738 5739 5740 5741 5741 5742 5742 5742 5742 5741 5741 5740 5739 5737 5735 5733 5731 5728 5725 5722 5719 5715 5712 5708 5704 5699 5695 5691 5687 5683 5678 5674 5670
5723 5723 5724 5725 5726 5728 5729 5730 5732 5733 5735 5736 5737 5738 5739 5740 5741 5741 5741 5741 5741 5740 5739 5738 5736 5734 5732 5730 5727 5724 5721 5718 5715 5711 5707 5702 5698 5694 5690 5685 5681 5676 5672 5668
5719 5720 5721 5722 5724 5725 5726 5728 5730 5731 5733 5734 5735 5737 5738 5739 5739 5740 5740 5740 5740 5739 5738 5737 5735 5733 5731 5729 5726 5724 5721 5717 5714 5710 5705 5701 5697 5693 5688 5684 5679 5674 5670 5665
5716 5718 5719 5720 5721 5723 5724 5726 5728 5729 5731 5733 5734 5735 5736 5737 5738 5739 5739 5739 5739 5738 5737 5736 5734 5733 5731 5728 5726 5723 5720 5716 5713 5708 5704 5700 5695 5691 5687 5682 5677 5672 5667 5663
5713 5715 5716 5718 5719 5721 5722 5724 5726 5727 5729 5731 5733 5734 5736 5736 5737 5738 5738 5738 5738 5737 5736 5735 5734 5732 5730 5728 5725 5722 5719 5715 5712 5707 5703 5699 5694 5689 5685 5680 5675 5670 5665 5660
5710 5712 5714 5715 5717 5719 5721 5722 5724 5726 5727 5729 5732 5733 5735 5736 5737 5738 5738 5738 5737 5737 5736 5735 5733 5731 5729 5727 5724 5721 5718 5714 5711 5706 5702 5697 5693 5688 5683 5678 5673 5668 5663 5658
5707 5709 5711 5713 5715 5717 5719 5721 5722 5725 5726 5728 5731 5733 5734 5736 5736 5737 5738 5737 5737 5736 5735 5734 5732 5731 5729 5726 5723 5720 5717 5713 5709 5705 5701 5696 5691 5686 5681 5676 5671 5665 5660 5655
5704 5706 5709 5711 5713 5715 5717 5719 5721 5723 5725 5728 5730 5732 5734 5735 5736 5737 5737 5737 5737 5736 5735 5733 5732 5730 5728 5725 5723 5719 5716 5712 5708 5704 5699 5695 5690 5684 5679 5674 5669 5663 5658 5653
5701 5704 5706 5708 5711 5713 5715 5717 5720 5722 5724 5727 5729 5731 5733 5734 5735 5736 5737 5737 5736 5736 5735 5733 5732 5730 5727 5725 5722 5719 5715 5711 5707 5703 5698 5693 5688 5682 5677 5672 5666 5661 5656 5650
5698 5701 5703 5706 5709 5711 5714 5716 5718 5721 5723 5726 5728 5730 5732 5734 5735 5735 5736 5736 5736 5735 5734 5733 5731 5729 5727 5724 5721 5718 5714 5710 5706 5701 5697 5692 5686 5681 5675 5670 5664 5659 5653 5648
5695 5698 5701 5704 5707 5709 5712 5714 5717 5719 5722 5725 5727 5729 5731 5733 5734 5735 5735 5735 5735 5735 5734 5732 5730 5728 5726 5723 5720 5717 5713 5709 5704 5700 5695 5690 5685 5679 5674 5668 5662 5656 5651 5645
5693 5696 5699 5702 5705 5708 5711 5713 5716 5719 5721 5724 5726 5728 5730 5731 5733 5734 5734 5735 5735 5734 5733 5731 5730 5727 5725 5722 5719 5715 5711 5707 5703 5698 5693 5688 5683 5678 5672 5666 5660 5654 5648 5642
5691 5694 5697 5701 5704 5706 5709 5712 5715 5718 5720 5723 5725 5727 5729 5730 5732 5733 5733 5734 5733 5733 5732 5730 5728 5726 5723 5720 5717 5713 5709 5705 5701 5696 5691 5686 5681 5676 5670 5664 5658 5651 5645 5639